Time,TemperatureF,DewpointF,PressureIn,WindDirection,WindDirectionDegrees,WindSpeedMPH,WindSpeedGustMPH,Humidity,HourlyPrecipIn,Conditions,Clouds,dailyrainin,SoftwareType,DateUTC
2013-02-17 00:02:00,27.0,11.0,-100.00,North,-999,0.0,-999.0,50,0.00,,,0.00,,2013-02-17 05:02:00,
2013-02-17 00:12:00,27.0,11.0,-100.00,North,-999,0.0,-999.0,50,0.00,,,0.00,,2013-02-17 05:12:00,
2013-02-17 00:22:00,27.0,11.0,-100.00,North,-999,0.0,-999.0,50,0.00,,,0.00,,2013-02-17 05:22:00,
2013-02-17 00:33:00,27.0,11.0,-100.00,North,-999,0.0,-999.0,50,0.00,,,0.00,,2013-02-17 05:33:00,
2013-02-17 00:42:00,27.0,11.0,-100.00,North,-999,0.0,-999.0,50,0.00,,,0.00,,2013-02-17 05:42:00,
2013-02-17 01:02:00,28.0,2.0,-100.00,North,-999,0.0,-999.0,32,0.00,,,0.00,,2013-02-17 06:02:00,
2013-02-17 01:11:00,28.0,2.0,-100.00,North,-999,0.0,-999.0,32,0.00,,,0.00,,2013-02-17 06:11:00,
2013-02-17 01:21:00,28.0,2.0,-100.00,North,-999,0.0,-999.0,32,0.00,,,0.00,,2013-02-17 06:21:00,
2013-02-17 01:32:00,28.0,2.0,-100.00,North,-999,0.0,-999.0,32,0.00,,,0.00,,2013-02-17 06:32:00,
2013-02-17 01:42:00,28.0,2.0,-100.00,North,-999,0.0,-999.0,32,0.00,,,0.00,,2013-02-17 06:42:00,
2013-02-17 02:01:00,27.0,1.0,-100.00,North,-999,0.0,-999.0,32,0.00,,,0.00,,2013-02-17 07:01:00,
2013-02-17 02:11:00,27.0,1.0,-100.00,North,-999,0.0,-999.0,32,0.00,,,0.00,,2013-02-17 07:11:00,
2013-02-17 02:21:00,27.0,1.0,-100.00,North,-999,0.0,-999.0,32,0.00,,,0.00,,2013-02-17 07:21:00,
2013-02-17 02:32:00,27.0,1.0,-100.00,North,-999,0.0,-999.0,32,0.00,,,0.00,,2013-02-17 07:32:00,
2013-02-17 02:42:00,27.0,1.0,-100.00,North,-999,0.0,-999.0,32,0.00,,,0.00,,2013-02-17 07:42:00,
2013-02-17 03:01:00,26.0,1.0,-100.00,North,-999,0.0,-999.0,34,0.00,,,0.00,,2013-02-17 08:01:00,
2013-02-17 03:11:00,26.0,1.0,-100.00,North,-999,0.0,-999.0,34,0.00,,,0.00,,2013-02-17 08:11:00,
2013-02-17 03:22:00,26.0,1.0,-100.00,North,-999,0.0,-999.0,34,0.00,,,0.00,,2013-02-17 08:22:00,
2013-02-17 03:32:00,26.0,1.0,-100.00,North,-999,0.0,-999.0,34,0.00,,,0.00,,2013-02-17 08:32:00,
2013-02-17 03:42:00,26.0,1.0,-100.00,North,-999,0.0,-999.0,34,0.00,,,0.00,,2013-02-17 08:42:00,
2013-02-17 04:02:00,26.0,2.0,-100.00,North,-999,0.0,-999.0,36,0.00,,,0.00,,2013-02-17 09:02:00,
2013-02-17 04:11:00,26.0,2.0,-100.00,North,-999,0.0,-999.0,36,0.00,,,0.00,,2013-02-17 09:11:00,
2013-02-17 04:21:00,26.0,2.0,-100.00,North,-999,0.0,-999.0,36,0.00,,,0.00,,2013-02-17 09:21:00,
2013-02-17 04:32:00,26.0,2.0,-100.00,North,-999,0.0,-999.0,36,0.00,,,0.00,,2013-02-17 09:32:00,
2013-02-17 04:42:00,26.0,2.0,-100.00,North,-999,0.0,-999.0,36,0.00,,,0.00,,2013-02-17 09:42:00,
2013-02-17 05:01:00,24.0,13.0,-100.00,North,-999,0.0,-999.0,62,0.00,,,0.00,,2013-02-17 10:01:00,
2013-02-17 05:11:00,24.0,13.0,-100.00,North,-999,0.0,-999.0,62,0.00,,,0.00,,2013-02-17 10:11:00,
2013-02-17 05:22:00,24.0,13.0,-100.00,North,-999,0.0,-999.0,62,0.00,,,0.00,,2013-02-17 10:22:00,
2013-02-17 05:32:00,24.0,13.0,-100.00,North,-999,0.0,-999.0,62,0.00,,,0.00,,2013-02-17 10:32:00,
2013-02-17 05:42:00,24.0,13.0,-100.00,North,-999,0.0,-999.0,62,0.00,,,0.00,,2013-02-17 10:42:00,
2013-02-17 06:01:00,24.0,13.0,-100.00,North,-999,0.0,-999.0,62,0.00,,,0.00,,2013-02-17 11:01:00,
2013-02-17 06:11:00,24.0,13.0,-100.00,North,-999,0.0,-999.0,62,0.00,,,0.00,,2013-02-17 11:11:00,
2013-02-17 06:22:00,24.0,13.0,-100.00,North,-999,0.0,-999.0,62,0.00,,,0.00,,2013-02-17 11:22:00,
2013-02-17 06:32:00,24.0,13.0,-100.00,North,-999,0.0,-999.0,62,0.00,,,0.00,,2013-02-17 11:32:00,
2013-02-17 06:42:00,24.0,13.0,-100.00,North,-999,0.0,-999.0,62,0.00,,,0.00,,2013-02-17 11:42:00,
2013-02-17 07:03:00,19.0,13.0,-100.00,North,-999,0.0,-999.0,78,0.00,,,0.00,,2013-02-17 12:03:00,
2013-02-17 07:11:00,19.0,13.0,-100.00,North,-999,0.0,-999.0,78,0.00,,,0.00,,2013-02-17 12:11:00,
2013-02-17 07:22:00,19.0,13.0,-100.00,North,-999,0.0,-999.0,78,0.00,,,0.00,,2013-02-17 12:22:00,
2013-02-17 07:32:00,19.0,13.0,-100.00,North,-999,0.0,-999.0,78,0.00,,,0.00,,2013-02-17 12:32:00,
2013-02-17 07:42:00,19.0,13.0,-100.00,North,-999,0.0,-999.0,78,0.00,,,0.00,,2013-02-17 12:42:00,
2013-02-17 08:02:00,19.0,14.0,-100.00,North,-999,0.0,-999.0,81,0.00,,,0.00,,2013-02-17 13:02:00,
2013-02-17 08:12:00,19.0,14.0,-100.00,North,-999,0.0,-999.0,81,0.00,,,0.00,,2013-02-17 13:12:00,
2013-02-17 08:22:00,19.0,14.0,-100.00,North,-999,0.0,-999.0,81,0.00,,,0.00,,2013-02-17 13:22:00,
2013-02-17 08:32:00,19.0,14.0,-100.00,North,-999,0.0,-999.0,81,0.00,,,0.00,,2013-02-17 13:32:00,
2013-02-17 08:42:00,19.0,14.0,-100.00,North,-999,0.0,-999.0,81,0.00,,,0.00,,2013-02-17 13:42:00,
2013-02-17 09:01:00,18.0,12.0,-100.00,North,-999,0.0,-999.0,78,0.01,,,0.01,,2013-02-17 14:01:00,
2013-02-17 09:11:00,18.0,12.0,-100.00,North,-999,0.0,-999.0,78,0.01,,,0.01,,2013-02-17 14:11:00,
2013-02-17 09:22:00,18.0,12.0,-100.00,North,-999,0.0,-999.0,78,0.01,,,0.01,,2013-02-17 14:22:00,
2013-02-17 09:32:00,18.0,12.0,-100.00,North,-999,0.0,-999.0,78,0.01,,,0.01,,2013-02-17 14:32:00,
2013-02-17 09:42:00,18.0,12.0,-100.00,North,-999,0.0,-999.0,78,0.01,,,0.01,,2013-02-17 14:42:00,
2013-02-17 10:02:00,19.0,12.0,-100.00,North,-999,0.0,-999.0,75,0.00,,,0.01,,2013-02-17 15:02:00,
2013-02-17 10:11:00,19.0,12.0,-100.00,North,-999,0.0,-999.0,75,0.00,,,0.01,,2013-02-17 15:11:00,
2013-02-17 10:22:00,19.0,12.0,-100.00,North,-999,0.0,-999.0,75,0.00,,,0.01,,2013-02-17 15:22:00,
2013-02-17 10:32:00,19.0,12.0,-100.00,North,-999,0.0,-999.0,75,0.00,,,0.01,,2013-02-17 15:32:00,
2013-02-17 10:42:00,19.0,12.0,-100.00,North,-999,0.0,-999.0,75,0.00,,,0.01,,2013-02-17 15:42:00,
2013-02-17 11:01:00,18.0,13.0,-100.00,North,-999,0.0,-999.0,79,0.00,,,0.01,,2013-02-17 16:01:00,
2013-02-17 11:12:00,18.0,13.0,-100.00,North,-999,0.0,-999.0,79,0.00,,,0.01,,2013-02-17 16:12:00,
2013-02-17 11:22:00,18.0,13.0,-100.00,North,-999,0.0,-999.0,79,0.00,,,0.01,,2013-02-17 16:22:00,
2013-02-17 11:32:00,18.0,13.0,-100.00,North,-999,0.0,-999.0,79,0.00,,,0.01,,2013-02-17 16:32:00,
2013-02-17 11:42:00,18.0,13.0,-100.00,North,-999,0.0,-999.0,79,0.00,,,0.01,,2013-02-17 16:42:00,
2013-02-17 12:02:00,18.0,13.0,-100.00,North,-999,0.0,-999.0,79,0.01,,,0.02,,2013-02-17 17:02:00,
2013-02-17 12:11:00,18.0,13.0,-100.00,North,-999,0.0,-999.0,79,0.01,,,0.02,,2013-02-17 17:11:00,
2013-02-17 12:21:00,18.0,13.0,-100.00,North,-999,0.0,-999.0,79,0.01,,,0.02,,2013-02-17 17:21:00,
2013-02-17 12:32:00,18.0,13.0,-100.00,North,-999,0.0,-999.0,79,0.01,,,0.02,,2013-02-17 17:32:00,
2013-02-17 12:42:00,18.0,13.0,-100.00,North,-999,0.0,-999.0,79,0.01,,,0.02,,2013-02-17 17:42:00,
2013-02-17 13:02:00,19.0,6.0,-100.00,North,-999,0.0,-999.0,57,0.01,,,-99.99,,2013-02-17 18:02:00,
2013-02-17 13:11:00,19.0,6.0,-100.00,North,-999,0.0,-999.0,57,0.01,,,-99.99,,2013-02-17 18:11:00,
2013-02-17 13:22:00,19.0,6.0,-100.00,North,-999,0.0,-999.0,57,0.01,,,-99.99,,2013-02-17 18:22:00,
2013-02-17 13:33:00,19.0,6.0,-100.00,North,-999,0.0,-999.0,57,0.01,,,-99.99,,2013-02-17 18:33:00,
2013-02-17 13:42:00,19.0,6.0,-100.00,North,-999,0.0,-999.0,57,0.01,,,-99.99,,2013-02-17 18:42:00,
2013-02-17 14:02:00,19.0,5.0,-100.00,North,-999,0.0,-999.0,54,0.00,,,-99.99,,2013-02-17 19:02:00,
2013-02-17 14:11:00,19.0,5.0,-100.00,North,-999,0.0,-999.0,54,0.00,,,-99.99,,2013-02-17 19:11:00,
2013-02-17 14:22:00,19.0,5.0,-100.00,North,-999,0.0,-999.0,54,0.00,,,-99.99,,2013-02-17 19:22:00,
2013-02-17 14:32:00,19.0,5.0,-100.00,North,-999,0.0,-999.0,54,0.00,,,-99.99,,2013-02-17 19:32:00,
2013-02-17 14:42:00,19.0,5.0,-100.00,North,-999,0.0,-999.0,54,0.00,,,-99.99,,2013-02-17 19:42:00,
2013-02-17 15:02:00,19.0,3.0,-100.00,North,-999,0.0,-999.0,50,0.27,,,-99.99,,2013-02-17 20:02:00,
2013-02-17 15:11:00,19.0,3.0,-100.00,North,-999,0.0,-999.0,50,0.27,,,-99.99,,2013-02-17 20:11:00,
2013-02-17 15:22:00,19.0,3.0,-100.00,North,-999,0.0,-999.0,50,0.27,,,-99.99,,2013-02-17 20:22:00,
2013-02-17 15:32:00,19.0,3.0,-100.00,North,-999,0.0,-999.0,50,0.27,,,-99.99,,2013-02-17 20:32:00,
2013-02-17 15:42:00,19.0,3.0,-100.00,North,-999,0.0,-999.0,50,0.27,,,-99.99,,2013-02-17 20:42:00,
2013-02-17 16:02:00,18.0,1.0,-100.00,North,-999,0.0,-999.0,47,0.55,,,-99.99,,2013-02-17 21:02:00,
2013-02-17 16:11:00,18.0,1.0,-100.00,North,-999,0.0,-999.0,47,0.55,,,-99.99,,2013-02-17 21:11:00,
2013-02-17 16:21:00,18.0,1.0,-100.00,North,-999,0.0,-999.0,47,0.55,,,-99.99,,2013-02-17 21:21:00,
2013-02-17 16:32:00,18.0,1.0,-100.00,North,-999,0.0,-999.0,47,0.55,,,-99.99,,2013-02-17 21:32:00,
2013-02-17 16:42:00,18.0,1.0,-100.00,North,-999,0.0,-999.0,47,0.55,,,-99.99,,2013-02-17 21:42:00,
2013-02-17 17:01:00,17.0,0.0,-100.00,North,-999,0.0,-999.0,47,1.23,,,2.08,,2013-02-17 22:01:00,
2013-02-17 17:12:00,17.0,0.0,-100.00,North,-999,0.0,-999.0,47,1.23,,,2.08,,2013-02-17 22:12:00,
2013-02-17 17:22:00,17.0,0.0,-100.00,North,-999,0.0,-999.0,47,1.23,,,2.08,,2013-02-17 22:22:00,
2013-02-17 17:32:00,17.0,0.0,-100.00,North,-999,0.0,-999.0,47,1.23,,,2.08,,2013-02-17 22:32:00,
2013-02-17 17:42:00,17.0,0.0,-100.00,North,-999,0.0,-999.0,47,1.23,,,2.08,,2013-02-17 22:42:00,
2013-02-17 18:02:00,15.0,1.0,-100.00,North,-999,0.0,-999.0,53,1.32,,,3.40,,2013-02-17 23:02:00,
2013-02-17 18:11:00,15.0,1.0,-100.00,North,-999,0.0,-999.0,53,1.32,,,3.40,,2013-02-17 23:11:00,
2013-02-17 18:22:00,15.0,1.0,-100.00,North,-999,0.0,-999.0,53,1.32,,,3.40,,2013-02-17 23:22:00,
2013-02-17 18:32:00,15.0,1.0,-100.00,North,-999,0.0,-999.0,53,1.32,,,3.40,,2013-02-17 23:32:00,
2013-02-17 18:42:00,15.0,1.0,-100.00,North,-999,0.0,-999.0,53,1.32,,,3.40,,2013-02-17 23:42:00,
2013-02-17 19:02:00,14.0,0.0,-100.00,North,-999,0.0,-999.0,52,2.02,,,5.42,,2013-02-18 00:02:00,
2013-02-17 19:12:00,14.0,0.0,-100.00,North,-999,0.0,-999.0,52,2.02,,,5.42,,2013-02-18 00:12:00,
2013-02-17 19:22:00,14.0,0.0,-100.00,North,-999,0.0,-999.0,52,2.02,,,5.42,,2013-02-18 00:22:00,
2013-02-17 19:32:00,14.0,0.0,-100.00,North,-999,0.0,-999.0,52,2.02,,,5.42,,2013-02-18 00:32:00,
2013-02-17 19:42:00,14.0,0.0,-100.00,North,-999,0.0,-999.0,52,2.02,,,5.42,,2013-02-18 00:42:00,
2013-02-17 20:01:00,15.0,0.0,-100.00,North,-999,0.0,-999.0,51,2.76,,,8.18,,2013-02-18 01:01:00,
2013-02-17 20:12:00,15.0,0.0,-100.00,North,-999,0.0,-999.0,51,2.76,,,8.18,,2013-02-18 01:12:00,
2013-02-17 20:21:00,15.0,0.0,-100.00,North,-999,0.0,-999.0,51,2.76,,,8.18,,2013-02-18 01:21:00,
2013-02-17 20:32:00,15.0,0.0,-100.00,North,-999,0.0,-999.0,51,2.76,,,8.18,,2013-02-18 01:32:00,
2013-02-17 20:42:00,15.0,0.0,-100.00,North,-999,0.0,-999.0,51,2.76,,,8.18,,2013-02-18 01:42:00,
2013-02-17 21:02:00,14.0,-1.0,-100.00,North,-999,0.0,-999.0,50,1.73,,,9.91,,2013-02-18 02:02:00,
2013-02-17 21:11:00,14.0,-1.0,-100.00,North,-999,0.0,-999.0,50,1.73,,,9.91,,2013-02-18 02:11:00,
2013-02-17 21:22:00,14.0,-1.0,-100.00,North,-999,0.0,-999.0,50,1.73,,,9.91,,2013-02-18 02:22:00,
2013-02-17 21:32:00,14.0,-1.0,-100.00,North,-999,0.0,-999.0,50,1.73,,,9.91,,2013-02-18 02:32:00,
2013-02-17 21:42:00,14.0,-1.0,-100.00,North,-999,0.0,-999.0,50,1.73,,,9.91,,2013-02-18 02:42:00,
2013-02-17 22:02:00,14.0,-1.0,-100.00,North,-999,0.0,-999.0,51,0.02,,,-99.99,,2013-02-18 03:02:00,
2013-02-17 22:11:00,14.0,-1.0,-100.00,North,-999,0.0,-999.0,51,0.02,,,-99.99,,2013-02-18 03:11:00,
2013-02-17 22:22:00,14.0,-1.0,-100.00,North,-999,0.0,-999.0,51,0.02,,,-99.99,,2013-02-18 03:22:00,
2013-02-17 22:32:00,14.0,-1.0,-100.00,North,-999,0.0,-999.0,51,0.02,,,-99.99,,2013-02-18 03:32:00,
2013-02-17 22:42:00,14.0,-1.0,-100.00,North,-999,0.0,-999.0,51,0.02,,,-99.99,,2013-02-18 03:42:00,
2013-02-17 23:01:00,14.0,0.0,-100.00,North,-999,0.0,-999.0,53,1.70,,,11.63,,2013-02-18 04:01:00,
2013-02-17 23:11:00,14.0,0.0,-100.00,North,-999,0.0,-999.0,53,1.70,,,11.63,,2013-02-18 04:11:00,
2013-02-17 23:21:00,14.0,0.0,-100.00,North,-999,0.0,-999.0,53,1.70,,,11.63,,2013-02-18 04:21:00,
2013-02-17 23:32:00,14.0,0.0,-100.00,North,-999,0.0,-999.0,53,1.70,,,11.63,,2013-02-18 04:32:00,
2013-02-17 23:42:00,14.0,0.0,-100.00,North,-999,0.0,-999.0,53,1.70,,,11.63,,2013-02-18 04:42:00,